Location: Eschentzwiller
(47.7125°N, 7.3981°E)
Time: 04:12:07
(UTC+00:00)

H-2A R/B - Pass Details

Date: 27 October 2020
Orbit: 733 x 837 km, 98.2° (Epoch: 01 December)

Event Time Altitude Azimuth Distance (km) Brightness Sun altitude
Exits shadow 18:58:47 - 183° (S) 3,175 5.1 -27.2°
Reaches altitude 10° 19:00:46 10° 188° (S) 2,427 4.5 -27.5°
Maximum altitude 19:05:58 47° 262° (W) 1,095 3.1 -28.4°
Drops below altitude 10° 19:11:15 10° 336° (NNW) 2,462 5.0 -29.2°
Sets 19:13:43 0° 342° (NNW) 3,399 5.7 -29.6°
